Dayton Wright, OH

8:15 PM EST on November 20, 2017 (GMT -0500)
Dayton-Wright Brothers

Weather History for KMGY - May, 2013

Change the Weather History Date:

Saturday, May 11, 2013

  Actual Average (KFFO) Record (KFFO)
Temperature  
Mean Temperature 52 °F -  
Max Temperature 57 °F 71 °F 86 °F (1999)
Min Temperature 45 °F 49 °F 37 °F (1997)
Degree Days  
Heating Degree Days 14    
Growing Degree Days 2 (Base 50)    
Moisture  
Dew Point 47 °F    
Average Humidity 92    
Maximum Humidity 100    
Minimum Humidity 72    
Precipitation  
Precipitation 0.05 in - - ()
Sea Level Pressure  
Sea Level Pressure 29.90 in    
Wind  
Wind Speed 9 mph (WNW)    
Max Wind Speed 13 mph    
Max Gust Speed 28 mph    
Visibility 8 miles    
Events Rain    
Averages and records for this station are not official NWS values.
T = Trace of Precipitation, MM = Missing Value Source: NWS Daily Summary

Daily Weather History Graph

Daily Weather History Graph

Search for Another Location

Airport or City:

Trip Planner

Search our weather history database for the weather conditions in past years. The results will help you decide how hot, cold, wet, or windy it might be!

Date:

Astronomy

May. 11, 2013 Rise Set
Actual Time 6:26 AM EDT 8:40 PM EDT
Civil Twilight 5:56 AM EDT 9:10 PM EDT
Nautical Twilight 5:19 AM EDT 9:48 PM EDT
Astronomical Twilight 4:38 AM EDT 10:28 PM EDT
Moon 7:33 AM EDT (5/11) 10:20 PM EDT (5/11)
Length of Visible Light 15h 14m
Length of Day
14h 14m
Waxing Crescent, 3% of the Moon is Illuminated
May 11
Waxing Crescent
May 18
First Quarter
May 25
Full
May 31
Last Quarter
Jun 8
New

Hourly Weather History & Observations

Time (EDT) Temp. Windchill Dew Point Humidity Pressure Visibility Wind Dir Wind Speed Gust Speed Precip Events Conditions
12:36 AM 57.2 °F - 57.2 °F 100% 29.86 in 5.0 mi WNW 11.5 mph - N/A   Overcast
12:46 AM 55.4 °F - 55.4 °F 100% 29.86 in 5.0 mi NW 10.4 mph - N/A   Overcast
12:53 AM 55.0 °F - 55.0 °F 100% 29.86 in 5.0 mi NW 8.1 mph - N/A   Overcast
12:57 AM 55.4 °F - 55.4 °F 100% 29.86 in 5.0 mi NNW 11.5 mph - N/A   Overcast
1:12 AM 53.6 °F - 53.6 °F 100% 29.87 in 6.0 mi NW 11.5 mph - N/A   Overcast
1:49 AM 51.8 °F - 51.8 °F 100% 29.87 in 8.0 mi NW 8.1 mph - N/A   Overcast
1:53 AM 52.0 °F - 52.0 °F 100% 29.87 in 8.0 mi NW 8.1 mph - N/A   Overcast
2:53 AM 50.0 °F - 50.0 °F 100% 29.87 in 10.0 mi WNW 6.9 mph - N/A   Overcast
3:50 AM 48.2 °F - 48.2 °F 100% 29.87 in 10.0 mi WNW 10.4 mph - N/A   Overcast
3:53 AM 48.9 °F - 48.9 °F 100% 29.87 in 10.0 mi WNW 9.2 mph - N/A   Overcast
4:53 AM 48.0 °F - 48.0 °F 100% 29.87 in 8.0 mi NW 8.1 mph - N/A   Overcast
5:24 AM 48.2 °F - 48.2 °F 100% 29.88 in 7.0 mi WNW 10.4 mph - N/A   Overcast
5:37 AM 48.2 °F - 48.2 °F 100% 29.87 in 8.0 mi NW 8.1 mph 16.1 mph N/A   Overcast
5:53 AM 46.9 °F - 46.9 °F 100% 29.88 in 6.0 mi NW 8.1 mph - N/A   Overcast
6:28 AM 46.4 °F 42.9 °F 46.4 °F 100% 29.89 in 9.0 mi NW 6.9 mph - N/A   Overcast
6:37 AM 46.4 °F 42.9 °F 46.4 °F 100% 29.89 in 9.0 mi NW 6.9 mph - N/A   Overcast
6:53 AM 46.9 °F - 46.9 °F 100% 29.88 in 8.0 mi NW 6.9 mph - N/A   Overcast
7:53 AM 46.9 °F - 46.9 °F 100% 29.89 in 5.0 mi WNW 9.2 mph - N/A   Overcast
8:53 AM 46.0 °F 42.5 °F 46.0 °F 100% 29.89 in 4.0 mi WNW 6.9 mph - N/A   Overcast
9:43 AM 46.4 °F 42.4 °F 46.4 °F 100% 29.91 in 5.0 mi WNW 8.1 mph - N/A   Overcast
9:53 AM 46.0 °F 43.1 °F 46.0 °F 100% 29.91 in 6.0 mi NW 5.8 mph - N/A   Overcast
10:07 AM 46.4 °F 42.9 °F 46.4 °F 100% 29.91 in 8.0 mi WNW 6.9 mph - N/A   Overcast
10:53 AM 46.9 °F - 46.9 °F 100% 29.91 in 4.0 mi WNW 6.9 mph - N/A   Overcast
11:53 AM 48.0 °F - 46.0 °F 93% 29.90 in 10.0 mi West 8.1 mph - N/A   Overcast
12:30 PM 48.2 °F - 46.4 °F 93% 29.91 in 10.0 mi West 6.9 mph - N/A   Overcast
12:53 PM 48.9 °F - 46.0 °F 90% 29.92 in 10.0 mi West 5.8 mph - N/A   Overcast
1:53 PM 48.9 °F - 45.0 °F 86% 29.91 in 10.0 mi West 8.1 mph - N/A   Overcast
2:53 PM 48.9 °F - 45.0 °F 86% 29.92 in 10.0 mi WSW 9.2 mph - N/A   Overcast
3:45 PM 51.8 °F - 46.4 °F 82% 29.90 in 10.0 mi West 8.1 mph 16.1 mph N/A   Overcast
3:53 PM 51.1 °F - 46.0 °F 83% 29.91 in 10.0 mi SW 11.5 mph - N/A   Overcast
4:53 PM 53.1 °F - 46.0 °F 77% 29.91 in 10.0 mi West 12.7 mph - N/A   Overcast
5:53 PM 55.0 °F - 46.0 °F 72% 29.90 in 10.0 mi WSW 8.1 mph - N/A   Mostly Cloudy
6:53 PM 55.9 °F - 46.9 °F 72% 29.89 in 10.0 mi WSW 6.9 mph - N/A   Mostly Cloudy
7:53 PM 55.9 °F - 46.9 °F 72% 29.88 in 10.0 mi WSW 5.8 mph - N/A   Scattered Clouds
8:34 PM 53.6 °F - 48.2 °F 82% 29.89 in 2.5 mi WSW 5.8 mph 18.4 mph 0.04 in Rain Light Rain
8:41 PM 53.6 °F - 48.2 °F 82% 29.89 in 9.0 mi West 3.5 mph - 0.04 in Rain Light Rain
8:53 PM 55.0 °F - 48.9 °F 80% 29.90 in 10.0 mi WNW 4.6 mph - 0.04 in   Overcast
9:20 PM 46.4 °F 40.7 °F 39.2 °F 76% 29.93 in 10.0 mi North 12.7 mph 27.6 mph 0.00 in Rain Light Rain
9:53 PM 46.9 °F - 39.9 °F 77% 29.96 in 10.0 mi NNW 10.4 mph - 0.01 in   Overcast
10:53 PM 46.0 °F 41.4 °F 37.9 °F 73% 29.99 in 10.0 mi North 9.2 mph 18.4 mph N/A   Mostly Cloudy
11:53 PM 45.0 °F 41.8 °F 39.0 °F 80% 30.00 in 10.0 mi NNW 5.8 mph - N/A   Mostly Cloudy